User: anonymous   Login
Location: Brno
(49.2000°N, 16.6330°E)
Time: 00:34:42
(UTC+02:00)
Language:

CARTOSAT-1 - Orbit

View from above orbital plane
View from above orbital plane
View from above satellite
View from above satellite

Ground track
Ground track

The orbit data is extracted from the following two-line orbital elements,

1 28649U 05017A   17142.92888302 +.00000151 +00000-0 +24748-4 0  9993
2 28649 097.8610 217.7277 0003431 107.5696 252.5881 14.83448910652231
Epoch (UTC): 22 May 2017 22:17:35
Eccentricity: 0.0003431
inclination: 97.8610°
perigee height: 616 km
apogee height: 621 km
right ascension of ascending node: 217.7277°
argument of perigee: 107.5696°
revolutions per day: 14.83448910
mean anomaly at epoch: 252.5881°
orbit number at epoch: 65223

The dashed part of the orbit path shows where the satellite is in the earth's shadow,  

DLR